| time (UTC) | temp F | wind direction | speed knots | gust knots | rain 1hr in | rain 24hr in | rain mn in | humidity % | barometer mb |
| 20260503040015 | 38 | 136 | 0.0 | 0.0 | 0.00 | 0.14 | 0.00 | 94 | 1010.5 |
| 20260503034515 | 38 | 136 | 0.0 | 0.0 | 0.01 | 0.14 | 0.14 | 94 | 1010.6 |
| 20260503033015 | 38 | 136 | 0.0 | 0.0 | 0.01 | 0.14 | 0.14 | 93 | 1010.7 |
| 20260503031514 | 38 | 136 | 0.0 | 0.0 | 0.01 | 0.14 | 0.14 | 93 | 1010.7 |
| 20260503030016 | 38 | 136 | 0.0 | 0.0 | 0.01 | 0.14 | 0.14 | 94 | 1010.9 |
| 20260503024512 | 38 | 180 | 0.0 | 0.0 | 0.00 | 0.13 | 0.13 | 94 | 1011.0 |
| 20260503023012 | 38 | 179 | 0.0 | 0.0 | 0.00 | 0.13 | 0.13 | 94 | 1011.2 |
| 20260503021512 | 38 | 179 | 0.0 | 0.0 | 0.00 | 0.13 | 0.13 | 94 | 1011.3 |
| 20260503020012 | 38 | 179 | 0.0 | 0.0 | 0.00 | 0.13 | 0.13 | 94 | 1011.3 |
| 20260503014511 | 38 | 179 | 0.0 | 0.0 | 0.00 | 0.13 | 0.13 | 94 | 1011.4 |
| 20260503013022 | 39 | 179 | 0.0 | 0.0 | 0.00 | 0.13 | 0.13 | 94 | 1011.4 |
| 20260503011510 | 39 | 179 | 0.0 | 0.0 | 0.00 | 0.13 | 0.13 | 94 | 1011.5 |
| 20260503010009 | 39 | 179 | 0.0 | 0.0 | 0.01 | 0.13 | 0.13 | 94 | 1011.7 |
| 20260503004508 | 39 | 179 | 0.0 | 0.0 | 0.01 | 0.13 | 0.13 | 94 | 1011.7 |
| 20260503003008 | 39 | 179 | 0.0 | 0.0 | 0.01 | 0.13 | 0.13 | 94 | 1011.6 |
| 20260503001508 | 39 | 179 | 0.0 | 0.0 | 0.01 | 0.13 | 0.13 | 93 | 1011.5 |
| 20260503000007 | 39 | 179 | 0.0 | 0.0 | 0.01 | 0.12 | 0.12 | 93 | 1011.5 |
| 20260502234506 | 39 | 179 | 0.0 | 0.0 | 0.01 | 0.12 | 0.12 | 93 | 1011.5 |
| 20260502233006 | 39 | 179 | 0.0 | 0.0 | 0.01 | 0.12 | 0.12 | 92 | 1011.8 |
| 20260502231515 | 39 | 179 | 0.0 | 0.0 | 0.02 | 0.12 | 0.12 | 92 | 1011.8 |
| 20260502230004 | 39 | 179 | 0.0 | 0.0 | 0.02 | 0.11 | 0.11 | 91 | 1011.7 |
| 20260502224504 | 39 | 179 | 0.0 | 0.0 | 0.02 | 0.11 | 0.11 | 90 | 1011.6 |
| 20260502223004 | 39 | 179 | 0.0 | 0.0 | 0.04 | 0.11 | 0.11 | 90 | 1011.7 |
| 20260502221502 | 39 | 179 | 0.0 | 0.0 | 0.04 | 0.10 | 0.10 | 90 | 1011.8 |
| 20260502220002 | 39 | 179 | 0.0 | 0.0 | 0.05 | 0.09 | 0.09 | 90 | 1012.0 |
| 20260502214501 | 39 | 167 | 0.0 | 0.0 | 0.06 | 0.09 | 0.09 | 89 | 1012.1 |
| 20260502213100 | 39 | 180 | 0.0 | 3.5 | 0.05 | 0.07 | 0.07 | 89 | 1012.1 |
| 20260502211602 | 39 | 192 | 0.0 | 7.0 | 0.05 | 0.06 | 0.06 | 88 | 1012.0 |
| 20260502210058 | 40 | 180 | 2.6 | 9.6 | 0.05 | 0.05 | 0.05 | 87 | 1012.1 |
| 20260502204558 | 41 | 198 | 0.9 | 5.2 | 0.03 | 0.03 | 0.03 | 87 | 1012.0 |
| 20260502203058 | 41 | 241 | 0.0 | 7.0 | 0.02 | 0.02 | 0.02 | 86 | 1012.0 |
| 20260502201604 | 41 | 221 | 4.3 | 9.6 | 0.01 | 0.01 | 0.01 | 81 | 1011.9 |
| 20260502200055 | 43 | 188 | 5.2 | 12.2 | 0.00 | 0.00 | 0.00 | 78 | 1011.9 |
| 20260502194612 | 44 | 184 | 3.5 | 8.7 | 0.00 | 0.00 | 0.00 | 77 | 1011.8 |
| 20260502193106 | 44 | 165 | 6.1 | 10.4 | 0.00 | 0.00 | 0.00 | 73 | 1011.8 |
| 20260502191601 | 45 | 200 | 1.7 | 9.6 | 0.00 | 0.00 | 0.00 | 72 | 1011.8 |
| 20260502190053 | 45 | 164 | 5.2 | 8.7 | 0.00 | 0.00 | 0.00 | 69 | 1011.8 |
| 20260502184602 | 46 | 202 | 4.3 | 8.7 | 0.00 | 0.00 | 0.00 | 67 | 1011.7 |
| 20260502183051 | 45 | 185 | 3.5 | 10.4 | 0.00 | 0.00 | 0.00 | 69 | 1011.7 |
| 20260502181552 | 47 | 194 | 0.9 | 10.4 | 0.00 | 0.00 | 0.00 | 63 | 1011.7 |
| 20260502163050 | 47 | 195 | 0.0 | 11.3 | 0.00 | 0.00 | 0.00 | 52 | 1011.9 |
| 20260502161603 | 47 | 233 | 0.0 | 7.8 | 0.00 | 0.00 | 0.00 | 52 | 1011.9 |
| 20260502160104 | 47 | 165 | 4.3 | 7.8 | 0.00 | 0.00 | 0.00 | 48 | 1011.9 |
| 20260502151543 | 49 | 246 | 1.7 | 10.4 | 0.00 | 0.00 | 0.00 | 46 | 1011.9 |
| 20260502123040 | 43 | 360 | 0.0 | 7.0 | 0.00 | 0.01 | 0.00 | 61 | 1012.5 |
| 20260502121519 | 42 | 360 | 2.6 | 7.0 | 0.00 | 0.01 | 0.00 | 64 | 1012.5 |
| 20260502114513 | 40 | 360 | 0.0 | 0.0 | 0.00 | 0.01 | 0.00 | 68 | 1012.1 |
| 20260502113009 | 39 | 244 | 0.0 | 7.0 | 0.00 | 0.01 | 0.00 | 72 | 1012.1 |
| 20260502111506 | 37 | 339 | 6.1 | 9.6 | 0.00 | 0.01 | 0.00 | 73 | 1011.5 |
| 20260502110004 | 37 | 360 | 7.8 | 11.3 | 0.00 | 0.01 | 0.00 | 74 | 1011.3 |
| 20260502104504 | 37 | 360 | 7.0 | 13.0 | 0.00 | 0.02 | 0.00 | 72 | 1011.3 |
| 20260502103007 | 36 | 360 | 4.3 | 8.7 | 0.00 | 0.02 | 0.00 | 74 | 1011.3 |
| 20260502101502 | 36 | 360 | 5.2 | 11.3 | 0.00 | 0.02 | 0.00 | 75 | 1011.3 |
| 20260502070039 | 36 | 360 | 9.6 | 14.8 | 0.00 | 0.05 | 0.00 | 73 | 1009.8 |
| 20260502064538 | 36 | 283 | 7.0 | 14.8 | 0.00 | 0.08 | 0.00 | 73 | 1009.8 |
| 20260502063051 | 36 | 260 | 8.7 | 13.9 | 0.00 | 0.08 | 0.00 | 73 | 1009.5 |
| 20260502061531 | 36 | 267 | 7.0 | 11.3 | 0.00 | 0.08 | 0.00 | 73 | 1009.3 |
| 20260502060029 | 36 | 291 | 7.0 | 11.3 | 0.00 | 0.08 | 0.00 | 73 | 1009.3 |
| 20260502054527 | 36 | 360 | 7.8 | 12.2 | 0.00 | 0.10 | 0.00 | 72 | 1009.2 |
| 20260502053025 | 37 | 279 | 7.8 | 13.9 | 0.00 | 0.10 | 0.00 | 72 | 1009.0 |
| 20260502051524 | 37 | 360 | 9.6 | 13.9 | 0.00 | 0.10 | 0.00 | 71 | 1008.8 |
| 20260502050032 | 37 | 360 | 8.7 | 17.4 | 0.00 | 0.10 | 0.00 | 71 | 1008.8 |
| 20260502044518 | 38 | 360 | 7.8 | 12.2 | 0.00 | 0.15 | 0.00 | 71 | 1008.7 |
| 20260502043016 | 38 | 360 | 7.0 | 11.3 | 0.00 | 0.15 | 0.00 | 71 | 1008.7 |
| 20260502041524 | 38 | 360 | 7.8 | 12.2 | 0.00 | 0.15 | 0.00 | 70 | 1008.7 |